This is the latest recevied weather packets stored in our database for station/object KC9Q. If no packets are shown the sender has not sent any weather packets the latest 1 day(s).
| Time | Temp. | Humidity | Pressure | Rain* | Wind** | Luminosity | Snow |
|---|---|---|---|---|---|---|---|
| 1778001831 | 16.67° C | 97% | 1007.8 hPa | 0 mm | 2.24 m/s, 177° | 60 W/m² | - |
| 1778001531 | 16.67° C | 97% | 1007.6 hPa | 0 mm | 1.34 m/s, 203° | 94 W/m² | - |
| 1778001228 | 16.67° C | 95% | 1007.6 hPa | 0 mm | 0.89 m/s, 153° | 106 W/m² | - |
| 1778000924 | 16.67° C | 95% | 1007.7 hPa | 0 mm | 0.89 m/s, 157° | 117 W/m² | - |
| 1778000621 | 16.67° C | 95% | 1007.9 hPa | 0 mm | 0.89 m/s, 205° | 149 W/m² | - |
| 1778000316 | 16.67° C | 95% | 1008.1 hPa | 0 mm | 1.34 m/s, 169° | 153 W/m² | - |
| 1778000012 | 16.67° C | 96% | 1008 hPa | 0 mm | 0.89 m/s, 179° | 119 W/m² | - |
| 1777999708 | 16.67° C | 96% | 1007.9 hPa | 0 mm | 0.89 m/s, 126° | 102 W/m² | - |
| 1777999405 | 16.67° C | 96% | 1008.1 hPa | 0 mm | 0 m/s | 88 W/m² | - |
| 1777999103 | 16.11° C | 96% | 1008.3 hPa | 0 mm | 0.89 m/s, 154° | 106 W/m² | - |
| 1777998802 | 16.67° C | 96% | 1008.1 hPa | 0 mm | 0.89 m/s, 176° | 108 W/m² | - |
| 1777998500 | 16.67° C | 97% | 1008.4 hPa | 0 mm | 0 m/s | 136 W/m² | - |
| 1777998196 | 16.11° C | 96% | 1008 hPa | 1.27 mm | 0 m/s | 95 W/m² | - |
| 1777997893 | 16.11° C | 96% | 1007.9 hPa | 1.27 mm | 0 m/s | 67 W/m² | - |
| 1777997590 | 16.11° C | 96% | 1008.1 hPa | 0 mm | 0.89 m/s, 120° | 92 W/m² | - |
| 1777997288 | 16.11° C | 96% | 1008.3 hPa | 0 mm | 0.89 m/s, 166° | 60 W/m² | - |
| 1777996986 | 16.11° C | 96% | 1008.1 hPa | 1.27 mm | 1.34 m/s, 191° | 60 W/m² | - |
| 1777996682 | 16.11° C | 96% | 1008.1 hPa | 1.78 mm | 1.79 m/s, 179° | 51 W/m² | - |
| 1777996377 | 16.11° C | 96% | 1008 hPa | 3.05 mm | 0.89 m/s, 177° | 41 W/m² | - |
| 1777996074 | 16.11° C | 95% | 1008.3 hPa | 3.56 mm | 0.89 m/s, 168° | 42 W/m² | - |
| 1777995771 | 16.67° C | 94% | 1008 hPa | 0.51 mm | 1.79 m/s, 207° | 56 W/m² | - |
| 1777995467 | 16.67° C | 94% | 1008.1 hPa | 0 mm | 1.34 m/s, 175° | 51 W/m² | - |
| 1777995164 | 16.67° C | 94% | 1008 hPa | 0 mm | 0.45 m/s, 196° | 47 W/m² | - |
| 1777994862 | 16.67° C | 94% | 1008.1 hPa | 0 mm | 2.24 m/s, 125° | 52 W/m² | - |
| 1777994558 | 16.67° C | 94% | 1008 hPa | 0 mm | 0.89 m/s, 169° | 37 W/m² | - |
* Rain latest hour (hover to see other rain measurements)
** Current wind speed in m/s (hover to see current wind gust speed)